User: anonymous   Login
Location: Broad Creek
(39.7000°N, 76.2570°W)
Time: 16:48:26
(UTC-05:00)
Language:

ATLAS 5 CENTAUR R/B - Orbit

View from above orbital plane
View from above orbital plane
View from above satellite
View from above satellite

Ground track
Ground track

The orbit data is extracted from the following two-line orbital elements,

1 31702U 07027B   18016.69375851 0.00000200  00000-0  60838-4 0    03
2 31702  63.3602 320.5901 0303000   6.1430 353.8570 14.18612982    08
Epoch (UTC): 16 January 2018 16:39:00
Eccentricity: 0.0303000
inclination: 63.3602°
perigee height: 611 km
apogee height: 1048 km
right ascension of ascending node: 320.5901°
argument of perigee: 6.1430°
revolutions per day: 14.18612982
mean anomaly at epoch: 353.8570°
orbit number at epoch: 0

The dashed part of the orbit path shows where the satellite is in the earth's shadow,  

DLR